Content
SEND FEEDBACK

Daily
Averages
Monthly
Summary
United States of America

ST. LOUIS, MISSOURI


Home > North America > United States > Missouri
Elevation: 163 meters     Latitude: 38 45N     Longitude: 090 22W

WEATHER
 
SELECT A DAY
Number of Records: 199,614;   Date Range: 1/1/95 - 10/19/14
 
SHARE

PRINT THIS DATA

[ ← Previous Day ]
WEATHER ALMANAC - 24 JUNE, 2013
[ Next Day → ]
[ °F ]   °C
We're sorry. There is no daily almanac available for St. Louis, Missouri on 24 June, 2013.
WEATHER BY HOUR - 24 JUNE, 2013
[ °F ]   °C
Local TimeTemperatureDewpointHumidityBarometerVisibilityWind DirectionWind SpeedGust SpeedPrecipitationEventsConditions
1:54 AM20 °C18.9 °C93 %1015.9 hPa16.1 kmCalmClear
2:54 AM20.6 °C18.9 °C90 %1015.6 hPa16.1 kmCalmClear
3:54 AM20 °C18.3 °C90 %1015.6 hPa16.1 kmCalmClear
4:54 AM20 °C18.3 °C90 %1015.6 hPa16.1 kmCalmClear
5:54 AM19.4 °C18.3 °C93 %1016.3 hPa11.3 kmCalmScattered Clouds
6:54 AM20.6 °C18.9 °C90 %1016.9 hPa16.1 kmCalmClear
7:54 AM22.8 °C20 °C84 %1017.3 hPa16.1 kmCalmClear
8:54 AM26.1 °C22.2 °C79 %1017.3 hPa14.5 kmCalmScattered Clouds
9:54 AM28.3 °C22.2 °C69 %1017.3 hPa16.1 kmSW (230°)13 km/hPartly Cloudy
10:54 AM29.4 °C22.2 °C65 %1016.6 hPa16.1 kmSouth (180°)11.1 km/hClear
11:18 AM30 °C22 °C62 %1017.3 hPa2.9 kmSSW (200°)16.7 km/hHaze
11:25 AM31 °C22 °C58 %1017.3 hPa16.1 kmWSW (240°)14.8 km/hClear
11:54 AM31.1 °C22.2 °C59 %1016.3 hPa16.1 kmWSW (250°)11.1 km/hClear
12:54 PM31.7 °C22.8 °C59 %1015.9 hPa16.1 kmWest (260°)9.3 km/hPartly Cloudy
1:54 PM32.2 °C22.2 °C55 %1015.2 hPa16.1 kmSSW (210°)14.8 km/hPartly Cloudy
2:54 PM32.2 °C21.1 °C52 %1014.6 hPa16.1 kmSSW (200°)14.8 km/hPartly Cloudy
3:54 PM32.8 °C21.1 °C50 %1014.6 hPa16.1 kmSSW (210°)16.7 km/hScattered Clouds
4:54 PM32.8 °C21.1 °C50 %1013.9 hPa16.1 kmSSW (200°)14.8 km/hPartly Cloudy
5:54 PM32.8 °C21.7 °C52 %1013.9 hPa16.1 kmSSW (210°)9.3 km/hClear
6:54 PM31.7 °C21.7 °C55 %1013.5 hPa16.1 kmSouth (190°)7.4 km/hPartly Cloudy
7:54 PM30 °C22.2 °C63 %1012.9 hPa16.1 kmCalmScattered Clouds
8:54 PM26.7 °C22.8 °C79 %1013.2 hPa16.1 kmCalmMostly Cloudy
9:54 PM28.3 °C21.1 °C65 %1013.2 hPa16.1 kmSouth (180°)9.3 km/hClear
10:54 PM27.8 °C21.1 °C67 %1012.9 hPa16.1 kmSouth (180°)14.8 km/hClear
11:54 PM27.8 °C21.1 °C67 %1012.5 hPa16.1 kmSouth (190°)11.1 km/hClear
Hourly data recorded from KSUS, located 0 kilometers away from St. Louis, Missouri







STORIES FROM OUR PARTNERS